Location: Newark
(22.3060°N, 114.2134°E)
Time: 06:39:32
(UTC+00:00)

Tiros 1 despin weight - Pass Details

Date: 07 August 2021
Orbit: 593 x 641 km, 48.2° (Epoch: 27 September)

Event Time Altitude Azimuth Distance (km) Brightness Sun altitude
Rises 11:12:14 0° 307° (NW) 2,929 ? -3.5°
Reaches altitude 10° 11:14:40 10° 301° (WNW) 2,015 ? -4.0°
Maximum altitude 11:19:03 43° 230° (SW) 885 ? -4.9°
Drops below altitude 10° 11:23:23 10° 158° (SSE) 1,986 ? -5.9°
Sets 11:25:46 0° 152° (SSE) 2,882 ? -6.4°
Enters shadow 11:25:49 - 152° (SSE) 2,899 ? -6.4°
